Temp
9 9 9 9 9 9 9 8 8 8 7 7 6 5 4 3 2 1 -1 -1 -1 -1 -1 -1 -1 -1 -0 -0 -0 -0 -0 -0 -0 -0 -1 -1 -1 -1 -0 -1 -0 -0 -1
8 8 8 8 8 8 8 8 8 8 7 7 5 4 3 3 1 1 -1 -1 -1 -1 -1 -2 -1 -1 -1 -1 -1 -1 -1 -1 -1 -1 -1 -1 -1 -1 -0 -1 -0 -1 -1
8 7 7 7 8 7 7 7 7 7 6 5 5 4 3 3 2 0 -1 -1 -1 -1 -1 -1 -1 -1 -1 -1 -1 -2 -2 -2 -1 -1 -1 -1 -1 -1 -2 -2 -0 -0 -1
6 6 6 6 7 7 7 7 7 6 6 5 4 4 3 2 2 0 -1 -1 -1 -1 -1 -1 -2 -2 -2 -2 -2 -2 -2 -2 -2 -1 -1 -1 -1 -1 -3 -3 -3 -1 -1
5 5 5 5 6 5 5 5 5 5 5 4 4 3 3 2 2 1 1 -1 -0 -0 -1 -1 -2 -2 -2 -2 -3 -3 -3 -2 -2 -1 -1 -2 -2 -3 -4 -4 -4 -3 -1
4 4 4 4 4 4 4 4 4 4 4 4 4 3 3 2 2 1 1 0 0 1 0 -0 -1 -1 -2 -3 -3 -3 -3 -2 -2 -2 -3 -3 -3 -4 -5 -5 -5 -4 -3
2 3 3 3 3 3 3 3 4 4 4 3 3 3 3 3 2 1 0 0 1 1 1 1 -0 -1 -1 -2 -3 -3 -3 -3 -3 -4 -4 -4 -4 -5 -6 -6 -5 -5 -4
0 2 2 1 1 2 2 2 3 3 4 3 2 2 2 2 1 1 1 0 1 1 1 1 -0 -0 -1 -1 -2 -4 -4 -3 -3 -3 -3 -3 -4 -5 -6 -6 -5 -3 -2
-0 0 1 1 1 1 0 2 2 2 2 2 3 2 2 2 2 2 1 1 0 1 1 1 1 0 -0 -1 -3 -5 -5 -4 -4 -3 -3 -3 -4 -5 -6 -5 -4 -4 -2
-0 -0 0 1 1 0 1 1 2 2 2 2 2 2 2 3 2 2 1 1 1 1 1 1 1 1 0 -1 -2 -5 -5 -4 -2 -3 -3 -3 -4 -4 -4 -5 -6 -6 -4
-0 -0 0 0 1 1 1 0 1 0 0 1 1 2 2 2 2 2 2 2 2 2 2 2 1 1 0 -0 -2 -1 -3 -2 -2 -2 -3 -4 -4 -4 -4 -4 -4 -5 -4
0 -0 -0 -0 0 0 1 0 1 -0 -1 -1 -0 0 1 1 1 2 1 2 2 2 2 2 1 1 1 0 -0 -1 -1 -2 -2 -2 -3 -3 -3 -4 -4 -5 -6 -6 -6
-0 -0 -0 -0 -0 0 0 -1 -1 -1 -2 -2 -2 -2 -1 1 1 0 0 1 1 1 2 1 1 1 0 -0 -1 -1 -1 -1 -2 -3 -3 -3 -3 -4 -4 -4 -6 -6 -7
-1 -0 -1 -1 -1 -1 -0 -1 -1 -2 -2 -2 -2 -2 -2 -0 1 1 1 -0 -1 -1 0 -1 -0 -0 -0 -0 -1 -1 -2 -1 -2 -2 -2 -3 -3 -3 -4 -4 -5 -6 -6
-2 -1 -1 -1 -1 -2 -1 -1 -1 -0 0 -1 -1 -0 0 -2 2 3 3 1 1 0 -1 -2 -2 -2 -2 -1 -2 -2 -2 -2 -2 -2 -2 -3 -3 -4 -4 -5 -6 -6 -6
-3 -2 -2 -2 -2 -2 -1 -2 -1 -0 0 0 1 2 1 2 3 3 3 3 2 0 -2 -3 -3 -2 -2 -1 -2 -2 -2 -2 -2 -2 -3 -3 -3 -4 -4 -5 -6 -6 -6
-4 -3 -2 -2 -2 -2 -2 -2 -2 -2 -1 -0 -0 0 1 2 1 2 2 1 0 -2 -2 -2 -2 -1 -0 -1 -1 -2 -1 -2 -2 -3 -3 -3 -3 -4 -5 -5 -6 -6 -6
-5 -3 -3 -3 -3 -3 -3 -2 -2 -3 -3 -3 -2 -1 -1 -0 -0 0 0 -1 -3 -3 -4 -3 -4 -1 -0 -0 -1 -1 -2 -3 -3 -3 -3 -4 -4 -4 -5 -5 -6 -6 -6
-6 -4 -3 -3 -3 -3 -3 -2 -2 -3 -3 -3 -3 -3 -2 -2 -2 -2 -2 -2 -3 -3 -4 -4 -3 -2 -1 -1 -1 -1 -2 -3 -3 -3 -4 -4 -4 -4 -5 -5 -5 -6 -6
-6 -5 -4 -4 -4 -3 -3 -3 -3 -3 -3 -3 -3 -3 -3 -3 -3 -3 -3 -3 -3 -3 -3 -4 -4 -3 -2 -2 -2 -2 -3 -4 -4 -4 -4 -4 -5 -5 -5 -5 -6 -6 -6
-6 -5 -5 -4 -4 -4 -4 -4 -4 -4 -5 -6 -6 -5 -5 -4 -4 -3 -3 -3 -3 -3 -3 -3 -3 -3 -3 -3 -3 -3 -3 -4 -4 -4 -5 -5 -5 -5 -5 -6 -6 -6 -6
-7 -7 -7 -8 -8 -7 -8 -8 -8 -8 -9 -9 -9 -8 -6 -6 -6 -6 -6 -5 -4 -3 -3 -3 -3 -3 -3 -4 -4 -4 -4 -5 -5 -5 -6 -6 -6 -6 -6 -7 -7 -7 -7
-10 -10 -11 -11 -11 -11 -11 -11 -11 -11 -12 -12 -11 -11 -10 -10 -10 -9 -9 -8 -7 -6 -5 -5 -4 -5 -5 -5 -5 -5 -5 -5 -5 -5 -6 -7 -7 -7 -7 -7 -8 -8 -8
-12 -12 -13 -13 -13 -13 -13 -13 -14 -14 -14 -14 -14 -14 -13 -13 -13 -12 -11 -10 -9 -9 -8 -7 -7 -7 -7 -7 -7 -7 -7 -7 -7 -7 -7 -7 -8 -8 -8 -9 -9 -9 -9
-13 -14 -14 -14 -14 -15 -15 -15 -15 -15 -15 -15 -15 -14 -14 -14 -13 -13 -13 -12 -11 -11 -10 -10 -9 -9 -9 -9 -9 -9 -8 -8 -8 -8 -8 -8 -8 -9 -9 -9 -9 -10 -10
-15 -15 -16 -16 -16 -16 -16 -16 -16 -16 -15 -15 -15 -15 -14 -14 -14 -14 -13 -13 -13 -13 -12 -12 -12 -11 -11 -11 -10 -10 -10 -9 -9 -9 -9 -9 -9 -10 -10 -10 -11 -11 -11
Height
736 740 742 744 747 750 754 758 763 767 772 777 781 785 790 794 797 799 802 804 805 805 805 807 809 811 813 815 817 818 819 821 820 815 812 808 804 801 798 794 790 787 783
735 737 740 742 744 748 751 754 759 763 769 774 779 784 788 792 795 796 799 802 804 805 805 805 807 811 812 813 815 816 818 819 819 816 812 808 805 801 799 795 790 787 785
733 734 737 739 741 744 747 752 755 759 765 770 776 780 784 788 792 795 796 800 802 805 804 805 806 808 810 811 813 814 816 817 818 816 812 808 804 801 798 794 790 788 786
731 732 733 735 738 742 744 748 751 756 761 767 772 777 782 785 788 792 793 797 801 803 804 805 806 806 809 811 811 813 813 815 815 814 811 808 805 803 800 795 790 788 786
729 728 730 733 735 738 742 745 749 753 758 764 769 774 779 783 786 789 791 794 796 800 801 802 804 806 807 808 810 811 811 812 812 811 810 808 805 802 800 798 794 789 787
725 724 726 728 731 735 738 741 746 750 755 760 764 769 774 778 783 787 789 791 794 796 798 800 802 803 805 806 807 808 809 809 809 809 808 807 805 803 800 799 796 790 789
720 719 721 723 726 730 734 738 741 745 750 755 761 766 770 775 780 785 786 790 792 793 796 798 800 802 803 803 805 805 806 806 806 807 807 806 804 803 800 797 795 792 789
713 713 714 718 722 726 730 733 737 741 745 751 757 762 767 771 777 781 784 788 790 791 794 796 798 800 801 802 802 803 804 804 805 805 805 804 803 800 799 797 794 791 788
706 705 707 711 716 720 724 726 731 736 741 747 752 758 763 768 773 776 780 784 787 789 791 793 796 798 799 800 800 801 802 803 803 803 803 803 801 799 797 795 792 789 788
698 698 700 702 707 710 715 719 724 730 736 743 748 754 759 764 768 772 776 780 783 786 787 790 793 795 796 797 798 799 800 802 802 802 802 802 800 798 796 794 793 790 789
691 691 692 695 699 705 709 715 719 725 732 739 744 749 755 759 763 767 771 774 778 781 783 786 789 792 794 795 796 796 798 799 801 801 800 800 799 798 797 796 793 792 790
686 685 686 689 694 700 706 711 716 722 728 733 739 745 749 754 759 762 766 769 774 777 779 783 786 789 791 793 794 795 797 798 799 800 800 800 798 797 796 796 795 795 793
681 680 681 684 689 692 699 706 711 717 724 728 734 739 743 748 753 759 762 767 770 772 776 780 783 785 788 790 791 793 794 796 797 798 798 798 797 796 795 795 795 797 797
677 675 677 679 682 687 693 700 705 711 717 723 729 734 738 743 748 752 756 763 765 768 771 775 779 782 784 786 788 790 792 794 795 796 796 796 796 795 794 794 795 796 797
675 672 672 675 678 682 687 691 697 703 707 713 720 725 730 735 736 742 746 753 758 762 767 771 774 776 778 781 784 787 789 791 793 794 794 794 794 794 793 794 794 794 797
673 670 669 672 675 678 683 689 696 700 704 710 715 718 724 729 733 738 742 748 753 758 761 764 767 770 772 775 779 783 785 787 789 790 791 791 792 793 793 793 794 795 795
672 670 668 669 672 676 679 683 690 698 701 707 712 715 720 725 730 734 738 742 747 752 754 756 759 762 764 769 773 778 780 783 785 786 788 788 790 791 792 793 795 796 797
671 668 666 667 670 673 678 682 684 689 696 702 708 713 718 722 725 730 735 739 743 747 749 750 751 755 758 763 768 772 776 778 780 782 784 786 787 789 790 792 793 794 795
670 668 667 667 669 673 675 678 681 687 693 698 704 711 716 719 722 726 732 732 734 738 742 744 746 749 753 758 762 766 770 772 775 777 779 782 785 786 788 789 791 792 793
669 668 668 669 670 673 675 678 684 688 693 698 703 706 711 716 719 724 727 728 731 735 738 740 742 746 750 754 758 762 765 768 770 772 775 778 781 783 784 787 789 789 791
668 669 670 671 674 676 679 683 686 689 693 698 702 707 710 713 717 720 722 724 727 731 733 736 739 742 746 749 753 756 759 762 765 768 771 774 777 780 781 784 787 788 789
669 670 672 674 676 680 684 687 690 693 697 701 705 708 710 712 715 718 719 721 723 726 729 731 735 738 741 745 748 751 754 756 760 763 767 771 774 777 779 781 784 786 787
673 675 678 680 682 686 689 693 696 699 702 705 708 710 712 714 716 718 720 722 724 725 727 730 733 736 739 742 745 748 750 752 755 759 763 767 771 773 775 778 781 783 784
678 681 684 687 690 693 697 701 703 706 708 711 713 715 717 718 720 722 723 724 726 727 729 731 733 735 738 740 743 745 748 751 754 757 760 763 767 770 773 776 778 780 783
685 688 691 694 697 700 702 706 708 710 713 716 718 720 722 723 725 726 728 729 730 731 732 733 735 738 740 741 743 746 748 751 754 756 758 761 765 768 771 774 776 778 780
692 695 699 701 704 707 708 713 716 717 718 722 724 726 728 729 731 732 733 734 734 735 736 737 739 740 742 743 745 747 750 752 754 756 759 761 763 767 770 772 774 776 778
Wind_Speed
25 28 29 33 34 33 32 30 30 26 23 22 19 17 16 14 13 11 9 9 10 10 10 9 8 8 6 5 4 3 5 6 8 16 17 25 23 24 26 25 23 22 23
25 27 29 32 34 33 34 33 30 27 24 22 21 19 17 16 15 13 12 10 10 9 9 9 9 7 5 4 3 3 5 6 10 13 20 21 22 22 22 24 22 21 21
23 26 29 32 35 36 34 33 30 28 26 24 23 22 20 18 17 14 13 11 10 9 9 8 8 7 4 4 3 3 3 5 8 14 15 19 19 20 24 21 19 21 16
22 26 30 34 37 36 35 34 32 30 28 27 24 22 21 20 19 17 14 13 10 9 8 7 6 6 4 4 2 2 3 5 7 10 14 15 15 17 15 19 23 22 16
24 26 31 35 36 37 36 35 33 31 29 27 25 22 21 20 19 18 15 13 12 11 9 6 7 6 5 3 2 2 3 4 7 9 10 10 12 16 17 18 14 19 7
26 30 32 34 36 37 37 36 34 32 30 28 26 24 23 21 19 17 14 14 12 11 9 8 6 5 5 4 2 3 3 4 5 6 6 9 9 11 14 16 14 9 5
27 32 34 36 36 38 37 36 34 33 31 29 27 25 24 21 20 18 15 13 12 11 10 8 7 6 4 2 1 1 1 3 4 5 6 8 11 13 14 14 12 7 5
24 30 33 33 32 36 37 37 35 34 32 31 29 27 25 23 21 19 17 15 13 11 10 9 7 6 5 3 1 1 2 1 2 4 6 7 8 10 10 10 10 10 5
24 27 30 33 32 35 36 39 38 35 33 32 31 29 28 25 23 20 19 17 15 13 11 9 8 6 5 3 2 1 1 2 2 2 3 4 6 6 8 8 8 8 2
24 27 31 36 36 37 40 39 38 37 35 33 31 30 28 26 23 21 20 19 16 14 12 10 8 6 5 3 2 2 1 1 3 3 2 3 6 8 9 10 8 7 4
24 28 31 34 36 37 37 35 36 35 33 31 31 29 28 27 25 23 23 21 19 16 14 12 9 7 6 5 3 1 1 2 1 2 4 4 5 6 9 10 10 8 5
24 27 29 31 33 33 34 34 34 33 31 30 29 28 28 27 26 25 25 22 19 18 16 12 9 8 7 6 5 3 1 1 1 3 2 2 4 4 4 7 10 12 11
24 24 26 29 31 33 33 31 30 31 26 24 25 23 28 28 27 26 22 22 21 19 16 13 11 10 10 8 7 4 3 3 3 3 1 2 4 4 2 2 4 5 9
19 21 23 27 29 31 30 30 27 27 24 22 22 20 20 25 28 27 26 24 22 20 18 16 13 12 12 11 9 7 6 5 4 4 2 1 3 4 4 3 2 2 2
16 17 21 23 26 26 28 31 31 32 33 28 28 28 30 28 35 33 31 30 28 26 21 17 17 17 17 15 12 10 9 8 8 6 4 2 2 3 4 4 3 4 4
11 15 19 19 21 22 24 21 24 26 29 26 26 31 31 29 27 27 26 26 26 27 24 24 25 23 22 20 17 14 13 12 11 9 7 4 3 3 5 5 5 6 9
13 14 16 17 18 19 19 21 19 15 14 23 22 19 21 24 19 17 17 19 23 23 22 26 27 26 27 23 20 18 17 14 12 11 10 7 6 6 6 7 7 7 8
11 5 14 17 17 17 18 17 20 20 16 17 18 17 17 18 18 16 15 16 20 24 23 24 25 26 27 25 22 20 18 16 15 13 12 10 10 9 9 8 8 6 6
7 3 5 11 14 16 17 17 16 17 16 16 17 17 17 17 15 16 19 23 21 23 23 25 24 25 25 24 21 20 20 20 17 15 15 13 12 12 11 9 9 9 7
3 2 6 10 13 15 17 18 18 18 18 17 15 14 15 16 16 19 20 19 19 19 22 23 23 22 21 19 18 19 20 20 19 17 16 15 14 13 12 11 10 11 10
5 7 10 13 13 13 14 15 16 16 17 20 19 10 9 12 12 10 14 18 20 19 18 20 20 19 20 18 18 19 21 20 18 17 17 16 15 15 13 11 11 11 10
15 18 20 21 22 23 22 22 22 22 21 20 17 16 14 16 15 14 13 12 10 12 17 20 19 17 15 16 18 20 20 20 20 19 18 17 15 14 13 12 12 13 11
20 22 22 23 24 25 25 23 22 22 21 20 19 18 17 16 14 12 10 9 8 8 9 11 11 10 9 10 14 15 17 19 19 18 18 18 17 15 14 14 14 13 13
25 25 24 23 23 24 22 22 23 24 22 22 22 22 21 20 19 17 15 13 10 9 8 7 7 7 8 9 10 12 13 14 15 16 17 18 17 16 15 15 14 13 12
27 25 24 22 22 22 24 23 23 25 25 24 24 24 22 22 22 21 19 18 17 16 15 13 12 11 10 10 10 10 10 11 11 13 14 14 15 15 15 13 12 12 12
30 30 27 27 26 25 27 26 26 27 27 26 25 24 23 22 21 20 19 19 18 17 16 16 15 13 12 12 10 10 9 10 10 11 12 13 13 14 13 12 12 11 11
Wind_Direction
199 198 195 192 194 191 185 184 186 184 184 183 182 180 178 174 172 173 169 176 171 159 158 163 165 167 175 198 223 251 263 272 276 297 309 326 335 343 355 354 0 5 7
206 203 197 193 191 190 187 187 188 184 184 184 183 183 180 179 179 175 170 180 180 174 171 159 155 162 176 193 226 254 275 286 292 302 316 334 337 348 350 344 359 16 12
212 204 197 192 194 193 189 188 187 185 184 184 187 187 184 183 181 182 170 176 186 191 175 165 166 171 179 194 218 255 281 297 301 304 303 328 333 355 346 357 8 20 24
220 206 198 196 199 197 191 189 187 187 185 187 190 189 189 187 185 181 175 176 180 193 186 189 175 172 182 205 222 254 301 316 322 321 321 330 341 345 355 355 355 11 14
227 210 205 206 204 198 190 189 187 186 187 189 189 191 193 194 195 191 186 181 180 191 191 185 174 184 193 205 234 279 322 329 330 335 338 336 340 351 1 343 336 357 13
235 219 212 207 206 200 194 191 189 188 190 191 193 194 194 197 199 197 194 186 187 191 190 186 192 198 203 183 236 268 270 304 317 332 333 333 331 342 344 340 337 355 340
252 225 216 213 206 203 198 193 191 191 191 194 196 197 199 199 202 200 191 193 195 194 196 197 193 198 207 174 183 298 276 260 270 308 305 327 325 331 339 337 345 344 326
248 224 216 211 202 203 199 196 194 194 195 195 198 201 202 201 205 204 200 200 199 201 204 207 200 195 207 220 285 30 360 337 279 316 317 325 327 336 341 335 334 334 36
244 222 213 209 201 199 197 197 197 196 198 200 203 203 204 204 206 205 203 202 204 206 208 211 210 214 231 248 224 118 37 53 346 357 338 337 343 355 355 5 15 22 32
247 226 215 211 202 199 201 198 199 201 202 202 205 209 209 208 208 208 208 205 206 209 210 214 216 217 229 226 231 169 99 51 22 46 32 29 22 15 12 22 26 25 14
254 232 218 211 204 205 202 197 197 197 201 203 207 209 211 212 209 211 211 208 211 209 213 215 216 216 225 227 221 274 149 34 72 94 79 33 13 4 14 27 36 39 52
264 233 216 208 202 202 203 199 201 194 194 198 204 208 213 212 212 214 212 215 212 215 218 219 219 222 224 230 228 218 166 172 156 109 103 349 6 341 3 36 45 50 38
266 228 212 205 200 199 196 193 187 191 188 187 191 196 209 212 214 215 214 215 215 215 218 221 222 226 227 229 233 226 207 199 183 167 193 15 18 17 20 9 47 44 25
265 219 205 196 191 195 193 194 187 187 188 187 189 193 195 214 214 212 214 216 214 218 213 213 218 223 228 231 227 220 217 213 212 205 190 55 41 49 49 58 108 142 68
284 218 195 192 186 185 191 193 196 204 199 189 196 195 197 204 217 215 213 213 217 217 212 209 209 216 223 227 226 226 220 216 212 208 207 172 121 88 81 112 93 90 127
278 201 186 186 185 185 184 183 202 215 212 208 215 218 219 228 224 223 221 224 225 219 209 208 215 222 229 231 227 224 224 222 219 215 209 197 174 145 123 126 124 123 120
320 226 200 186 181 179 178 174 169 187 202 210 211 214 220 222 217 213 212 217 218 202 213 212 219 225 232 233 231 228 227 226 222 217 214 201 185 170 155 149 140 132 118
328 235 203 191 183 179 180 175 168 167 165 177 192 190 197 200 204 204 201 192 189 202 212 215 218 228 234 234 232 230 226 219 215 214 210 206 195 187 178 172 171 168 154
330 352 172 182 182 179 174 168 168 175 172 176 190 194 203 208 202 203 203 204 194 200 211 222 228 232 235 236 234 230 225 221 217 214 210 207 202 196 191 192 189 187 178
311 134 128 133 139 147 152 147 148 140 134 141 146 158 174 183 185 199 204 208 213 215 217 223 232 231 235 232 229 227 219 214 212 210 208 206 204 204 198 198 195 186 181
98 110 116 114 108 114 123 125 126 122 111 102 95 111 145 161 175 185 207 213 219 219 222 228 230 232 232 231 226 218 216 214 211 209 205 203 203 202 199 196 197 191 186
105 102 102 94 96 92 89 94 92 94 97 100 99 87 126 119 114 108 102 114 141 198 220 224 214 218 227 229 223 216 212 209 206 204 202 201 201 199 199 198 194 194 190
103 95 88 85 90 91 86 85 85 87 87 89 92 94 95 93 94 93 92 89 95 111 130 162 196 206 215 222 220 220 215 211 208 203 199 197 197 196 198 200 197 191 191
95 89 86 84 85 84 83 82 81 82 82 80 80 82 85 89 88 86 87 90 96 101 108 127 145 164 176 182 189 192 198 203 204 206 206 200 195 191 193 195 197 196 193
91 85 81 82 83 85 84 80 81 84 84 84 85 88 90 90 87 85 86 87 89 93 96 104 114 126 137 149 158 167 171 179 185 188 187 188 189 189 192 197 197 196 196
90 89 87 87 85 86 88 89 89 91 91 92 91 90 89 87 86 87 86 87 88 90 93 96 99 107 116 122 130 144 154 163 169 174 179 182 184 188 193 196 197 198 199